| time (UTC) | temp F | wind direction | speed MPH | gust MPH | rain 1hr in | rain 24hr in | rain mn in | humidity % | barometer mb |
| 20260504081527 | 55 | 360 | 0.0 | 1.0 | 0.00 | 0.00 | 0.00 | 83 | 1011.2 |
| 20260504050006 | 58 | 303 | 0.0 | 1.0 | 0.00 | 0.00 | 0.00 | 76 | 1012.6 |
| 20260504044514 | 59 | 274 | 0.0 | 1.0 | 0.00 | 0.00 | 0.00 | 71 | 1012.7 |
| 20260504043015 | 59 | 184 | 0.0 | 2.0 | 0.00 | 0.00 | 0.00 | 73 | 1012.7 |
| 20260504041511 | 59 | 360 | 0.0 | 2.0 | 0.00 | 0.00 | 0.00 | 73 | 1012.8 |
| 20260504040009 | 59 | 90 | 0.0 | 2.0 | 0.00 | 0.00 | 0.00 | 75 | 1012.8 |
| 20260504034507 | 58 | 5 | 0.0 | 3.0 | 0.00 | 0.00 | 0.00 | 79 | 1012.8 |
| 20260504033012 | 58 | 192 | 0.0 | 1.0 | 0.00 | 0.00 | 0.00 | 80 | 1012.8 |
| 20260504031515 | 58 | 261 | 0.0 | 1.0 | 0.00 | 0.00 | 0.00 | 78 | 1012.8 |
| 20260504030023 | 59 | 260 | 0.0 | 1.0 | 0.00 | 0.00 | 0.00 | 76 | 1012.9 |
| 20260504024518 | 59 | 261 | 0.0 | 1.0 | 0.00 | 0.00 | 0.00 | 76 | 1013.0 |
| 20260504023016 | 60 | 260 | 0.0 | 0.0 | 0.00 | 0.00 | 0.00 | 73 | 1012.8 |
| 20260504021512 | 61 | 260 | 0.0 | 1.0 | 0.00 | 0.00 | 0.00 | 73 | 1012.7 |
| 20260504020015 | 62 | 260 | 0.0 | 1.0 | 0.00 | 0.00 | 0.00 | 68 | 1012.5 |
| 20260504014508 | 63 | 259 | 0.0 | 1.0 | 0.00 | 0.00 | 0.00 | 67 | 1012.7 |
| 20260504013019 | 65 | 165 | 0.0 | 1.0 | 0.00 | 0.00 | 0.00 | 63 | 1012.6 |
| 20260504011503 | 66 | 159 | 0.0 | 1.0 | 0.00 | 0.00 | 0.00 | 63 | 1012.3 |
| 20260504010011 | 69 | 163 | 0.0 | 1.0 | 0.00 | 0.00 | 0.00 | 56 | 1012.4 |
| 20260504004519 | 72 | 173 | 0.0 | 2.0 | 0.00 | 0.00 | 0.00 | 48 | 1012.4 |
| 20260504003008 | 74 | 174 | 1.0 | 4.0 | 0.00 | 0.00 | 0.00 | 44 | 1012.4 |
| 20260504001508 | 75 | 198 | 0.0 | 5.0 | 0.00 | 0.00 | 0.00 | 43 | 1012.6 |
| 20260504000008 | 75 | 182 | 0.0 | 4.0 | 0.00 | 0.00 | 0.00 | 44 | 1012.7 |
| 20260503234525 | 76 | 140 | 1.0 | 9.0 | 0.00 | 0.00 | 0.00 | 42 | 1012.8 |
| 20260503233006 | 77 | 177 | 2.0 | 6.0 | 0.00 | 0.00 | 0.00 | 39 | 1013.0 |
| 20260503231507 | 77 | 182 | 1.0 | 7.0 | 0.00 | 0.00 | 0.00 | 40 | 1013.1 |
| 20260503230008 | 77 | 193 | 1.0 | 6.0 | 0.00 | 0.00 | 0.00 | 39 | 1013.2 |
| 20260503224511 | 79 | 144 | 2.0 | 10.0 | 0.00 | 0.00 | 0.00 | 36 | 1013.1 |
| 20260503223006 | 79 | 279 | 3.0 | 6.0 | 0.00 | 0.00 | 0.00 | 34 | 1013.1 |
| 20260503221511 | 79 | 209 | 1.0 | 5.0 | 0.00 | 0.00 | 0.00 | 35 | 1013.2 |
| 20260503220029 | 79 | 297 | 1.0 | 6.0 | 0.00 | 0.00 | 0.00 | 32 | 1013.5 |
| 20260503214508 | 79 | 157 | 2.0 | 8.0 | 0.00 | 0.00 | 0.00 | 33 | 1013.6 |
| 20260503213014 | 79 | 194 | 1.0 | 9.0 | 0.00 | 0.00 | 0.00 | 33 | 1013.6 |
| 20260503211514 | 80 | 236 | 4.0 | 10.0 | 0.00 | 0.00 | 0.00 | 31 | 1013.8 |
| 20260503210008 | 79 | 169 | 2.0 | 10.0 | 0.00 | 0.00 | 0.00 | 35 | 1014.2 |
| 20260503204516 | 79 | 270 | 2.0 | 8.0 | 0.00 | 0.00 | 0.00 | 38 | 1014.4 |
| 20260503203025 | 80 | 197 | 1.0 | 6.0 | 0.00 | 0.00 | 0.00 | 34 | 1014.7 |
| 20260503201519 | 79 | 207 | 1.0 | 8.0 | 0.00 | 0.00 | 0.00 | 34 | 1014.7 |
| 20260503200019 | 79 | 182 | 2.0 | 8.0 | 0.00 | 0.00 | 0.00 | 34 | 1015.1 |
| 20260503194508 | 79 | 314 | 2.0 | 11.0 | 0.00 | 0.00 | 0.00 | 38 | 1015.4 |
| 20260503193013 | 79 | 336 | 1.0 | 10.0 | 0.00 | 0.00 | 0.00 | 36 | 1015.7 |
| 20260503191518 | 79 | 182 | 2.0 | 7.0 | 0.00 | 0.00 | 0.00 | 38 | 1015.7 |
| 20260503190007 | 77 | 231 | 1.0 | 8.0 | 0.00 | 0.00 | 0.00 | 38 | 1016.1 |
| 20260503184505 | 77 | 198 | 1.0 | 9.0 | 0.00 | 0.00 | 0.00 | 38 | 1016.1 |
| 20260503183009 | 77 | 313 | 3.0 | 11.0 | 0.00 | 0.00 | 0.00 | 39 | 1016.2 |
| 20260503181516 | 77 | 163 | 1.0 | 9.0 | 0.00 | 0.00 | 0.00 | 42 | 1016.5 |
| 20260503180012 | 76 | 157 | 2.0 | 5.0 | 0.00 | 0.00 | 0.00 | 40 | 1016.8 |
| 20260503174505 | 76 | 177 | 2.0 | 5.0 | 0.00 | 0.00 | 0.00 | 43 | 1017.1 |
| 20260503173009 | 75 | 181 | 2.0 | 10.0 | 0.00 | 0.00 | 0.00 | 42 | 1017.2 |
| 20260503171513 | 74 | 194 | 2.0 | 10.0 | 0.00 | 0.00 | 0.00 | 42 | 1017.4 |